Location: Cranbrook Institute of Science
(42.5830°N, 83.2450°W)
Time: 01:36:27
(UTC-04:00)

Daily predictions for brighter satellites

Satellite Brightness Start Highest point End
(mag) Time Altitude Azimuth Time Altitude Azimuth Time Altitude Azimuth
Cosmos 1844 Rocket 4.0 00:07:10 10° NNW 00:10:21 36° NNW 00:10:21 36° NNW
Terra 4.2 00:25:59 18° NW 00:25:59 18° NW 00:27:36 10° NW
Cosmos 2360 Rocket 3.8 00:24:17 30° NW 00:24:17 30° NW 00:29:01 10° N
Lacrosse 4 Rocket 4.5 00:34:09 14° N 00:34:09 14° N 00:35:01 10° N
Cosmos 2219 Rocket 4.1 00:44:56 23° NNE 00:44:56 23° NNE 00:47:01 10° NNE
ATLAS 3B R/B 3.8 00:53:38 42° NE 00:53:38 42° NE 00:58:10 10° NE
SL-16 R/B 4.5 01:10:26 17° NE 01:10:26 17° NE 01:11:45 10° NE
Cosmos 2237 Rocket 4.1 01:10:27 24° NNE 01:10:27 24° NNE 01:12:39 10° NNE
Cosmos 2333 Rocket 4.0 01:21:21 27° N 01:21:21 27° N 01:24:03 10° NNE
CZ-3A R/B 4.2 01:30:53 10° SW 01:52:17 43° NE 01:55:01 10° NE
Cosmos 2369 Rocket 3.9 02:17:27 10° N 02:20:37 29° NNE 02:20:37 29° NNE
Cosmos 1943 Rocket 4.3 02:22:00 10° N 02:26:08 20° NE 02:27:24 19° ENE
ATLAS 3B R/B 4.2 02:40:52 28° NW 02:42:16 29° NW 02:48:32 10° NNE
CZ-4C R/B 3.7 02:45:48 34° N 02:45:48 34° N 02:49:53 10° NNE
SL-16 R/B 4.0 02:52:18 24° NNW 02:52:18 24° NNW 02:55:31 10° N
ATLAS 5 CENTAUR R/B 3.9 03:02:30 24° ENE 03:02:30 24° ENE 03:04:48 10° NE
SL-16 R/B 4.3 02:59:00 18° ESE 03:02:01 27° ENE 03:07:02 10° N
CZ-2D R/B 4.1 03:14:02 10° NE 03:17:49 20° E 03:18:00 20° E
BREEZE-M DEB (TANK) 3.8 03:24:18 73° N 03:24:18 73° N 03:27:59 10° NE
Resurs 1-4 Rocket 3.6 03:30:19 10° NE 03:34:53 29° E 03:35:07 29° E
USA 234 4.4 03:33:53 10° ENE 03:39:27 29° SE 03:39:43 29° SE
NPP 4.3 03:42:37 10° N 03:46:39 48° NNW 03:46:39 48° NNW
IRAS Rocket 4.4 03:45:15 10° NNE 03:50:29 69° ENE 03:50:29 69° ENE
Cosmos 1943 4.0 03:59:07 41° NW 03:59:07 41° NW 04:03:42 10° NNE
Cosmos 2315 Rocket 3.8 03:59:19 84° SSE 03:59:31 88° E 04:05:52 10° N
CENTAUR R/B 2.4 04:01:24 76° SSE 04:01:43 78° ESE 04:08:37 10° NE
ARIANE 5 R/B 2.7 03:59:30 10° NNE 04:04:39 67° E 04:04:39 67° E
IRS-1D 3.8 04:00:03 10° NNE 04:05:17 65° ESE 04:05:24 64° ESE
Cosmos 2369 Rocket 4.4 04:01:39 10° NW 04:02:21 13° NW 04:02:21 13° NW
Spot 4 Rocket 4.1 04:01:40 10° NNE 04:06:15 70° N 04:06:15 70° N
UNK 4.2 04:09:02 59° NNE 04:09:02 59° NNE 04:12:58 10° N
Cosmos 1943 Rocket 2.7 04:04:49 10° NNW 04:08:49 46° NW 04:08:49 46° NW
Cosmos 1455 3.9 04:14:58 29° N 04:14:58 29° N 04:17:00 10° N
Cosmos 1733 Rocket 4.2 04:10:33 10° N 04:13:13 36° NNW 04:13:13 36° NNW
COSMOS 2406 3.3 04:16:34 61° SSE 04:17:18 68° ESE 04:23:01 10° NNE
Meteor 2-10 4.5 04:20:01 50° NW 04:20:01 50° NW 04:24:35 10° N
Cosmos 1862 4.3 04:16:18 10° N 04:20:02 45° ENE 04:20:02 45° ENE
Cosmos 1174 4.3 04:20:52 75° ENE 04:20:52 75° ENE 04:24:51 10° NE
Cosmos 1869 4.4 04:22:51 39° N 04:22:51 39° N 04:25:25 10° N
ERS-2 3.6 04:22:46 10° N 04:24:55 32° N 04:24:55 32° N
Cosmos 389 Rocket 4.1 04:29:38 31° N 04:29:38 31° N 04:31:36 10° N
Cosmos 1992 Rocket 4.0 04:24:19 10° NNW 04:29:35 82° ENE 04:31:42 37° SSE
Cosmos 1656 Rocket 3.5 04:25:57 10° NNW 04:31:25 82° ENE 04:36:50 10° SSE
Cosmos 1709 Rocket 4.4 04:29:07 10° NNW 04:34:53 44° W 04:34:53 44° W
ADEOS 4.1 04:31:49 10° N 04:36:34 42° WNW 04:36:34 42° WNW
Cosmos 1825 2.4 04:37:47 10° N 04:41:08 65° NNE 04:41:08 65° NNE
ATLAS 5 CENTAUR R/B 3.1 04:44:03 29° NW 04:44:46 30° NW 04:49:26 10° NNE
SL-16 R/B 2.6 04:44:06 47° SW 04:45:15 54° W 04:51:20 10° NNW
SL-27 R/B 3.9 04:46:27 31° NNW 04:46:27 31° NNW 04:48:42 10° N
COSMOS 2487 3.4 04:46:30 42° ESE 04:46:49 43° ESE 04:50:17 10° NNE
Cosmos 1908 Rocket 3.4 04:44:22 10° N 04:48:45 80° W 04:49:06 72° SSW
Cosmos 1933 3.2 04:48:51 84° WSW 04:48:56 85° W 04:53:03 10° N
Atlas Centaur 2 3.7 04:54:18 12° SSE 04:54:18 12° SSE 04:55:19 10° SE
CZ-2D R/B 2.3 04:53:07 10° N 04:58:13 52° WNW 04:59:19 44° WSW
Cosmos 2074 Rocket 3.9 04:53:30 10° NNW 04:59:39 65° W 05:03:38 23° SSW
Cosmos 2327 Rocket 4.4 04:55:13 10° NNW 05:01:16 65° W 05:05:25 21° S
USA 32 4.0 04:58:42 24° S 05:01:51 83° E 05:07:07 10° N
Cosmos 1703 Rocket 3.5 05:06:24 44° SSW 05:07:44 71° W 05:12:13 10° N
Cosmos 2154 Rocket 4.2 05:02:38 10° N 05:09:01 76° E 05:15:22 10° SSE
PSLV R/B 3.8 05:05:12 10° NNE 05:09:01 77° ESE 05:10:34 35° S
Cosmos 676 Rocket 4.3 05:06:00 21° S 05:09:25 63° ESE 05:14:35 10° NNE
Cosmos 2184 Rocket 4.1 05:03:17 10° NNW 05:09:32 57° W 05:14:01 19° SSW
Centaur D-1A AC-31 3.5 05:08:17 26° SW 05:09:50 27° SSW 05:14:05 10° SE
GPS 2-05 Rocket1 4.4 05:11:03 23° SSE 05:11:03 23° SSE 05:13:15 10° ESE
CZ-4B R/B 3.5 05:07:40 10° NNE 05:11:20 50° E 05:14:09 17° S
SeaSat 1 2.6 05:08:18 10° SE 05:13:12 73° ENE 05:18:08 10° NNW
Okean O Rocket 1.6 05:09:03 10° NNE 05:13:33 84° ESE 05:16:13 24° S
Aureole 3 Rocket 3.4 05:10:00 18° S 05:14:29 83° W 05:18:54 10° N
Resurs 1-4 Rocket 2.8 05:09:56 10° N 05:14:46 37° WNW 05:16:12 31° WSW
PAYLOAD B 4.4 05:10:23 10° NNE 05:15:55 73° ESE 05:21:06 12° S
Cosmos 2221 Rocket 3.5 05:14:36 37° SSW 05:16:10 63° W 05:20:33 10° N
CZ-2C R/B 3.5 05:13:40 10° SSE 05:18:06 82° WSW 05:22:33 10° NNW
ADEOS II 3.7 05:15:17 10° NNE 05:20:03 34° E 05:24:47 10° SSE
Cosmos 1610 Rocket 4.5 05:14:56 10° NNW 05:21:11 65° W 05:27:21 10° S
Abrixas rocket 2.7 05:22:02 41° S 05:22:02 41° S 05:24:47 10° SE
Cosmos 407 Rocket 3.4 05:18:53 27° SSW 05:21:46 75° WNW 05:27:05 10° NNE
USA 234 3.2 05:16:17 10° NE 05:22:51 80° NW 05:27:04 24° WSW
Okean 1-7 2.9 05:22:54 25° SSW 05:25:20 71° W 05:29:43 10° N
Meteor 2-10 Rocket 4.3 05:20:40 10° S 05:26:19 59° E 05:31:50 10° NNE
Okean-O 4.0 05:23:51 10° NNE 05:28:00 38° E 05:32:07 10° SSE
Cosmos 1140 Rocket 4.3 05:25:16 10° S 05:30:12 51° ESE 05:35:11 10° NNE
ADEOS Rocket 4.1 05:24:38 10° NNE 05:32:23 62° E 05:39:53 10° S
Cosmos 2151 Rocket 3.9 05:31:28 10° N 05:35:52 69° E 05:40:14 10° SSE
Cosmos 1408 4.2 05:34:16 10° NW 05:36:27 20° WNW 05:36:27 20° WNW
Cosmos 2341 Rocket 4.0 05:31:49 10° N 05:38:10 84° W 05:44:31 10° S
Cosmos 962 Rocket 4.4 05:33:52 10° N 05:40:12 82° W 05:46:25 10° S
UNKNOWN OBJECT B 4.3 05:39:27 10° NNW 05:42:07 19° WNW 05:42:36 18° WNW
Cosmos 2278 3.8 05:36:27 10° NNW 05:42:12 85° ENE 05:47:55 10° SSE
IRS-1C Rocket 4.3 05:37:34 10° N 05:42:42 54° WNW 05:47:01 14° SW
ARIANE 5 R/B 4.2 05:39:59 10° NNW 05:43:17 17° WNW 05:44:59 15° W
ARGOS Delta rocket 4.5 05:40:23 10° N 05:44:17 31° WNW 05:46:24 21° WSW
CENTAUR R/B 3.9 05:48:36 13° W 05:53:12 28° NNW 05:59:12 10° NNE
USA 129 1.1 05:53:43 14° SSE 05:54:54 71° ENE 05:56:35 10° N
Cosmos 1741 Rocket 4.5 05:51:55 10° S 05:57:04 62° ESE 06:02:14 10° NNE
Cosmos 2369 3.7 05:52:19 10° NNW 05:58:05 81° WSW 06:03:48 10° SSE
Cosmos 1400 Rocket 3.6 05:54:31 10° N 05:58:21 53° ENE 06:02:08 10° SSE
Okean 2 Rocket 4.0 05:55:13 10° NNW 05:59:07 29° W 06:03:01 10° SSW
CZ-4B R/B 3.4 05:56:32 10° N 06:01:37 48° WNW 06:06:40 10° SW
Cosmos 2218 Rocket 4.2 05:56:52 10° N 06:03:02 77° E 06:09:11 10° SSE
Cosmos 1674 Rocket 3.8 05:59:15 10° S 06:03:39 77° E 06:08:05 10° N
Cosmos 1315 Rocket 4.5 06:03:56 10° N 06:07:52 40° ENE 06:11:47 10° SSE
Cosmos 2208 Rocket 4.1 06:04:20 10° NNW 06:09:49 88° WSW 06:15:14 10° SSE
Cosmos 1606 3.1 06:09:21 10° S 06:13:14 69° E 06:17:08 10° NNE
Feng Yun 1-1 Rocket 4.2 06:08:12 10° NNE 06:13:38 86° WNW 06:19:05 10° SSW
Cosmos 1570 Rocket 4.0 06:12:54 10° NNW 06:18:06 69° WSW 06:23:17 10° S
Cosmos 2082 Rocket 2.3 06:12:35 10° SSW 06:18:18 83° ESE 06:24:02 10° NNE
Cosmos 1300 Rocket 3.6 06:15:26 10° N 06:19:46 88° E 06:24:05 10° S
Cosmos 1833 Rocket 3.0 06:17:23 10° SSW 06:22:58 74° ESE 06:28:35 10° NNE
Cosmos 1378 Rocket 4.2 06:18:45 10° S 06:23:00 60° E 06:27:18 10° NNE
Cosmos 2366 rocket 4.0 06:24:14 10° N 06:30:26 76° W 06:36:33 10° S
Meteor 1-27 Rocket 3.9 06:25:34 10° S 06:31:06 82° E 06:36:39 10° NNE
USA 229 DEB 3.9 06:24:55 10° SSW 06:31:49 81° ESE 06:38:50 10° NE
USA 229 3.9 06:25:01 10° SSW 06:31:56 80° ESE 06:38:56 10° NE
